| time (UTC) | temp C | wind direction | speed KPH | gust KPH | rain 1hr cm | rain 24hr cm | rain mn cm | humidity % | barometer mb |
| 20260506171227 | 14 | 118 | 3.2 | 4.8 | 0.00 | 0.00 | 0.00 | 90 | 1013.3 |
| 20260506170725 | 14 | 275 | 3.2 | 4.8 | 0.00 | 0.00 | 0.00 | 90 | 1012.5 |
| 20260506170221 | 13 | 171 | 1.6 | 4.8 | 0.00 | 0.00 | 0.00 | 91 | 1012.3 |
| 20260506165720 | 14 | 138 | 3.2 | 3.2 | 0.00 | 0.00 | 0.00 | 90 | 1012.0 |
| 20260506165216 | 13 | 169 | 3.2 | 3.2 | 0.00 | 0.00 | 0.00 | 92 | 1012.1 |
| 20260506164714 | 13 | 222 | 3.2 | 4.8 | 0.00 | 0.00 | 0.00 | 91 | 1013.2 |
| 20260506164211 | 13 | 221 | 3.2 | 3.2 | 0.00 | 0.00 | 0.00 | 92 | 1014.0 |
| 20260506163707 | 13 | 214 | 3.2 | 4.8 | 0.00 | 0.00 | 0.00 | 93 | 1014.0 |
| 20260506163202 | 13 | 238 | 4.8 | 9.7 | 0.00 | 0.00 | 0.00 | 93 | 1014.7 |
| 20260506162658 | 13 | 156 | 3.2 | 6.4 | 0.00 | 0.00 | 0.00 | 93 | 1014.4 |
| 20260506162156 | 13 | 266 | 4.8 | 8.0 | 0.00 | 0.00 | 0.00 | 93 | 1014.5 |
| 20260506161653 | 13 | 240 | 6.4 | 9.7 | 0.00 | 0.00 | 0.00 | 93 | 1014.6 |
| 20260506161150 | 13 | 150 | 0.0 | 9.7 | 0.00 | 0.00 | 0.00 | 93 | 1014.5 |
| 20260506160648 | 13 | 353 | 0.0 | 8.0 | 0.00 | 0.00 | 0.00 | 93 | 1014.7 |
| 20260506160144 | 13 | 141 | 0.0 | 6.4 | 0.00 | 0.00 | 0.00 | 93 | 1014.4 |
| 20260506155643 | 13 | 255 | 3.2 | 8.0 | 0.00 | 0.00 | 0.00 | 93 | 1014.2 |
| 20260506155140 | 13 | 203 | 4.8 | 9.7 | 0.00 | 0.00 | 0.00 | 92 | 1013.6 |
| 20260506153241 | 13 | 119 | 6.4 | 12.9 | 0.00 | 0.00 | 0.00 | 92 | 1013.4 |
| 20260506152738 | 13 | 158 | 1.6 | 3.2 | 0.00 | 0.00 | 0.00 | 92 | 1013.1 |
| 20260506152236 | 13 | 222 | 4.8 | 4.8 | 0.00 | 0.00 | 0.00 | 91 | 1012.8 |
| 20260506151735 | 13 | 152 | 0.0 | 3.2 | 0.00 | 0.00 | 0.00 | 92 | 1012.8 |
| 20260506151231 | 13 | 258 | 3.2 | 6.4 | 0.00 | 0.00 | 0.00 | 91 | 1012.7 |
| 20260506150727 | 13 | 197 | 3.2 | 8.0 | 0.00 | 0.00 | 0.00 | 91 | 1012.9 |
| 20260506150225 | 13 | 253 | 3.2 | 12.9 | 0.00 | 0.00 | 0.00 | 91 | 1012.9 |
| 20260506145722 | 13 | 254 | 8.0 | 8.0 | 0.00 | 0.00 | 0.00 | 91 | 1012.6 |
| 20260506145218 | 13 | 221 | 3.2 | 3.2 | 0.00 | 0.00 | 0.00 | 91 | 1012.8 |
| 20260506144716 | 13 | 233 | 3.2 | 8.0 | 0.00 | 0.00 | 0.00 | 91 | 1012.8 |
| 20260506144212 | 13 | 58 | 1.6 | 6.4 | 0.00 | 0.00 | 0.00 | 91 | 1012.4 |
| 20260506143710 | 13 | 235 | 6.4 | 6.4 | 0.00 | 0.00 | 0.00 | 91 | 1012.5 |
| 20260506143208 | 13 | 241 | 6.4 | 6.4 | 0.00 | 0.00 | 0.00 | 91 | 1012.2 |
| 20260506142706 | 13 | 217 | 6.4 | 9.7 | 0.00 | 0.00 | 0.00 | 91 | 1012.3 |
| 20260506142203 | 13 | 218 | 3.2 | 6.4 | 0.00 | 0.00 | 0.00 | 92 | 1012.1 |
| 20260506141701 | 13 | 232 | 6.4 | 9.7 | 0.00 | 0.00 | 0.00 | 92 | 1012.0 |
| 20260506141159 | 13 | 145 | 3.2 | 6.4 | 0.00 | 0.00 | 0.00 | 92 | 1012.2 |
| 20260506140656 | 13 | 219 | 0.0 | 8.0 | 0.00 | 0.00 | 0.00 | 92 | 1011.7 |
| 20260506140153 | 13 | 238 | 3.2 | 12.9 | 0.00 | 0.00 | 0.00 | 92 | 1011.9 |
| 20260506135650 | 13 | 284 | 0.0 | 8.0 | 0.00 | 0.00 | 0.00 | 92 | 1011.9 |
| 20260506135146 | 13 | 178 | 3.2 | 6.4 | 0.00 | 0.00 | 0.00 | 92 | 1011.9 |
| 20260506134643 | 13 | 142 | 3.2 | 6.4 | 0.00 | 0.00 | 0.00 | 93 | 1011.6 |
| 20260506134139 | 13 | 273 | 0.0 | 6.4 | 0.00 | 0.00 | 0.00 | 93 | 1011.5 |
| 20260506133637 | 13 | 267 | 1.6 | 6.4 | 0.00 | 0.00 | 0.00 | 93 | 1011.4 |
| 20260506133133 | 13 | 216 | 3.2 | 6.4 | 0.00 | 0.00 | 0.00 | 93 | 1011.4 |
| 20260506132631 | 13 | 312 | 1.6 | 6.4 | 0.00 | 0.00 | 0.00 | 95 | 1011.5 |
| 20260506132127 | 13 | 208 | 3.2 | 4.8 | 0.00 | 0.00 | 0.00 | 95 | 1011.6 |
| 20260506131625 | 13 | 237 | 6.4 | 8.0 | 0.00 | 0.00 | 0.00 | 96 | 1011.4 |
| 20260506131121 | 13 | 182 | 3.2 | 9.7 | 0.00 | 0.00 | 0.00 | 96 | 1011.5 |
| 20260506130618 | 13 | 211 | 4.8 | 8.0 | 0.00 | 0.00 | 0.00 | 96 | 1011.3 |
| 20260506130116 | 13 | 273 | 1.6 | 3.2 | 0.00 | 0.00 | 0.00 | 96 | 1011.3 |
| 20260506125614 | 13 | 247 | 1.6 | 8.0 | 0.00 | 0.00 | 0.00 | 97 | 1011.2 |
| 20260506125111 | 13 | 291 | 0.0 | 4.8 | 0.00 | 0.00 | 0.00 | 97 | 1011.2 |
| 20260506124609 | 13 | 259 | 3.2 | 9.7 | 0.00 | 0.00 | 0.00 | 97 | 1011.1 |
| 20260506124107 | 13 | 256 | 8.0 | 9.7 | 0.00 | 0.00 | 0.00 | 97 | 1011.0 |
| 20260506123604 | 13 | 216 | 6.4 | 6.4 | 0.00 | 0.00 | 0.00 | 97 | 1011.0 |
| 20260506123102 | 13 | 265 | 6.4 | 8.0 | 0.00 | 0.00 | 0.00 | 97 | 1011.1 |
| 20260506122558 | 13 | 311 | 1.6 | 8.0 | 0.00 | 0.00 | 0.00 | 97 | 1010.9 |
| 20260506122057 | 13 | 226 | 6.4 | 6.4 | 0.00 | 0.00 | 0.00 | 97 | 1010.9 |
| 20260506121554 | 13 | 101 | 4.8 | 4.8 | 0.00 | 0.00 | 0.00 | 97 | 1010.7 |
| 20260506121050 | 13 | 188 | 0.0 | 6.4 | 0.00 | 0.00 | 0.00 | 97 | 1010.6 |
| 20260506120548 | 14 | 210 | 4.8 | 6.4 | 0.00 | 0.00 | 0.00 | 97 | 1010.5 |
| 20260506120045 | 14 | 300 | 0.0 | 4.8 | 0.00 | 0.00 | 0.00 | 98 | 1010.3 |
| 20260506115543 | 14 | 211 | 0.0 | 8.0 | 0.00 | 0.00 | 0.00 | 97 | 1010.2 |
| 20260506115041 | 14 | 166 | 0.0 | 3.2 | 0.00 | 0.00 | 0.00 | 98 | 1010.1 |
| 20260506114538 | 15 | 223 | 0.0 | 4.8 | 0.00 | 0.00 | 0.00 | 98 | 1010.0 |
| 20260506114037 | 15 | 240 | 1.6 | 3.2 | 0.00 | 0.00 | 0.00 | 98 | 1010.0 |
| 20260506113534 | 15 | 215 | 3.2 | 4.8 | 0.00 | 0.00 | 0.00 | 98 | 1010.1 |
| 20260506113031 | 15 | 237 | 3.2 | 3.2 | 0.00 | 0.00 | 0.00 | 98 | 1009.7 |
| 20260506112528 | 15 | 151 | 0.0 | 3.2 | 0.00 | 0.00 | 0.00 | 98 | 1009.6 |
| 20260506112025 | 15 | 233 | 0.0 | 3.2 | 0.00 | 0.00 | 0.00 | 98 | 1009.5 |
| 20260506111523 | 15 | 229 | 4.8 | 6.4 | 0.00 | 0.00 | 0.00 | 98 | 1009.7 |
| 20260506111020 | 15 | 246 | 1.6 | 3.2 | 0.00 | 0.00 | 0.00 | 98 | 1009.6 |
| 20260506110518 | 15 | 210 | 0.0 | 3.2 | 0.00 | 0.00 | 0.00 | 97 | 1009.3 |
| 20260506110015 | 15 | 110 | 0.0 | 3.2 | 0.05 | 0.00 | 0.00 | 97 | 1009.2 |
| 20260506105511 | 15 | 240 | 3.2 | 6.4 | 0.00 | 0.00 | 0.00 | 97 | 1009.2 |
| 20260506105008 | 15 | 242 | 0.0 | 3.2 | 0.00 | 0.00 | 0.00 | 96 | 1009.4 |
| 20260506104506 | 15 | 278 | 0.0 | 4.8 | 0.00 | 0.00 | 0.00 | 95 | 1009.2 |
| 20260506104004 | 15 | 235 | 1.6 | 3.2 | 0.00 | 0.00 | 0.00 | 94 | 1009.0 |
| 20260506103501 | 15 | 301 | 0.0 | 4.8 | 0.00 | 0.00 | 0.00 | 93 | 1009.0 |
| 20260506102957 | 15 | 163 | 1.6 | 6.4 | 0.00 | 0.00 | 0.00 | 92 | 1008.9 |
| 20260506102456 | 15 | 265 | 4.8 | 4.8 | 0.00 | 0.00 | 0.00 | 92 | 1009.0 |
| 20260506101953 | 15 | 69 | 3.2 | 6.4 | 0.00 | 0.00 | 0.00 | 92 | 1008.9 |
| 20260506101449 | 16 | 210 | 3.2 | 6.4 | 0.00 | 0.00 | 0.00 | 91 | 1008.7 |
| 20260506100946 | 16 | 127 | 3.2 | 6.4 | 0.00 | 0.00 | 0.00 | 91 | 1008.9 |
| 20260506100445 | 16 | 224 | 1.6 | 6.4 | 0.00 | 0.00 | 0.00 | 92 | 1008.6 |
| 20260506095942 | 16 | 209 | 0.0 | 4.8 | 0.00 | 0.00 | 0.00 | 92 | 1008.5 |
| 20260506095441 | 16 | 138 | 1.6 | 3.2 | 0.00 | 0.00 | 0.00 | 92 | 1008.3 |
| 20260506094936 | 16 | 244 | 3.2 | 4.8 | 0.00 | 0.00 | 0.00 | 92 | 1008.4 |
| 20260506094435 | 16 | 214 | 3.2 | 6.4 | 0.00 | 0.00 | 0.00 | 91 | 1008.3 |
| 20260506093932 | 16 | 153 | 0.0 | 6.4 | 0.00 | 0.00 | 0.00 | 91 | 1008.4 |
| 20260506093430 | 16 | 313 | 0.0 | 4.8 | 0.00 | 0.00 | 0.00 | 90 | 1008.2 |
| 20260506092928 | 17 | 234 | 4.8 | 4.8 | 0.00 | 0.00 | 0.00 | 89 | 1008.2 |
| 20260506092426 | 17 | 222 | 3.2 | 4.8 | 0.00 | 0.00 | 0.00 | 89 | 1008.3 |
| 20260506091922 | 17 | 185 | 0.0 | 0.0 | 0.00 | 0.00 | 0.00 | 89 | 1008.4 |
| 20260506091420 | 17 | 166 | 3.2 | 4.8 | 0.00 | 0.00 | 0.00 | 89 | 1008.4 |
| 20260506090917 | 17 | 265 | 3.2 | 4.8 | 0.00 | 0.00 | 0.00 | 87 | 1008.4 |
| 20260506090415 | 17 | 329 | 0.0 | 6.4 | 0.00 | 0.00 | 0.00 | 86 | 1008.4 |
| 20260506085911 | 18 | 230 | 3.2 | 3.2 | 0.00 | 0.00 | 0.00 | 86 | 1008.3 |
| 20260506085408 | 18 | 243 | 3.2 | 4.8 | 0.00 | 0.00 | 0.00 | 85 | 1008.1 |
| 20260506084904 | 18 | 233 | 6.4 | 11.3 | 0.00 | 0.00 | 0.00 | 85 | 1008.4 |
| 20260506084401 | 18 | 200 | 0.0 | 4.8 | 0.00 | 0.00 | 0.00 | 84 | 1008.3 |
| 20260506083857 | 18 | 201 | 1.6 | 8.0 | 0.00 | 0.00 | 0.00 | 84 | 1008.2 |
| 20260506083355 | 18 | 0 | 0.0 | 8.0 | 0.00 | 0.00 | 0.00 | 84 | 1008.2 |
| 20260506082852 | 19 | 240 | 3.2 | 14.5 | 0.00 | 0.00 | 0.00 | 83 | 1008.2 |
| 20260506082349 | 19 | 239 | 3.2 | 6.4 | 0.00 | 0.00 | 0.00 | 83 | 1007.9 |
| 20260506081844 | 20 | 220 | 3.2 | 8.0 | 0.00 | 0.00 | 0.00 | 83 | 1007.8 |
| 20260506081343 | 20 | 255 | 6.4 | 16.1 | 0.00 | 0.00 | 0.00 | 83 | 1007.9 |
| 20260506080840 | 21 | 267 | 6.4 | 16.1 | 0.00 | 0.00 | 0.00 | 82 | 1007.8 |
| 20260506080337 | 23 | 269 | 0.0 | 4.8 | 0.00 | 0.00 | 0.00 | 91 | 1007.7 |
| 20260506073321 | 23 | 359 | 0.0 | 4.8 | 0.00 | 0.00 | 0.00 | 91 | 1007.7 |
| 20260506072818 | 23 | 272 | 3.2 | 3.2 | 0.00 | 0.00 | 0.00 | 91 | 1007.9 |
| 20260506072315 | 23 | 195 | 0.0 | 8.0 | 0.00 | 0.00 | 0.00 | 91 | 1007.7 |
| 20260506071813 | 23 | 122 | 0.0 | 3.2 | 0.00 | 0.00 | 0.00 | 91 | 1007.5 |
| 20260506071311 | 23 | 214 | 3.2 | 4.8 | 0.00 | 0.00 | 0.00 | 91 | 1007.8 |
| 20260506070808 | 23 | 222 | 3.2 | 3.2 | 0.00 | 0.00 | 0.00 | 91 | 1007.9 |
| 20260506070305 | 23 | 0 | 0.0 | 3.2 | 0.00 | 0.00 | 0.00 | 91 | 1007.9 |
| 20260506062242 | 24 | 251 | 3.2 | 3.2 | 0.00 | 0.00 | 0.00 | 90 | 1007.6 |
| 20260506061737 | 24 | 261 | 3.2 | 4.8 | 0.00 | 0.00 | 0.00 | 90 | 1007.8 |
| 20260506061235 | 24 | 249 | 3.2 | 4.8 | 0.00 | 0.00 | 0.00 | 90 | 1007.9 |
| 20260506060733 | 24 | 171 | 0.0 | 1.6 | 0.00 | 0.00 | 0.00 | 90 | 1008.0 |
| 20260506060230 | 24 | 264 | 3.2 | 3.2 | 0.00 | 0.00 | 0.00 | 90 | 1007.9 |
| 20260506051202 | 25 | 246 | 4.8 | 8.0 | 0.00 | 0.00 | 0.00 | 87 | 1007.6 |
| 20260506050701 | 24 | 226 | 1.6 | 6.4 | 0.00 | 0.00 | 0.00 | 87 | 1007.5 |
| 20260506050157 | 24 | 233 | 1.6 | 8.0 | 0.00 | 0.00 | 0.00 | 88 | 1007.6 |
| 20260506044648 | 25 | 304 | 3.2 | 4.8 | 0.00 | 0.00 | 0.00 | 87 | 1007.3 |
| 20260506044145 | 25 | 152 | 1.6 | 6.4 | 0.00 | 0.00 | 0.00 | 87 | 1007.1 |
| 20260506043642 | 25 | 299 | 3.2 | 4.8 | 0.00 | 0.00 | 0.00 | 87 | 1006.9 |
| 20260506043140 | 25 | 15 | 1.6 | 9.7 | 0.00 | 0.00 | 0.00 | 87 | 1007.2 |
| 20260506042639 | 25 | 150 | 3.2 | 4.8 | 0.00 | 0.00 | 0.00 | 87 | 1007.2 |
| 20260506042137 | 25 | 116 | 0.0 | 3.2 | 0.00 | 0.00 | 0.00 | 87 | 1007.2 |
| 20260506041635 | 25 | 112 | 1.6 | 4.8 | 0.00 | 0.00 | 0.00 | 87 | 1007.2 |
| 20260506041131 | 25 | 44 | 3.2 | 4.8 | 0.00 | 0.00 | 0.00 | 88 | 1007.4 |
| 20260506040629 | 25 | 313 | 0.0 | 4.8 | 0.00 | 0.00 | 0.00 | 88 | 1007.3 |
| 20260506040126 | 25 | 180 | 3.2 | 4.8 | 0.00 | 0.00 | 0.00 | 89 | 1007.2 |
| 20260506035623 | 24 | 245 | 3.2 | 4.8 | 0.00 | 0.00 | 0.00 | 89 | 1007.1 |
| 20260506035119 | 24 | 326 | 0.0 | 4.8 | 0.00 | 0.00 | 0.00 | 90 | 1006.9 |
| 20260506034616 | 24 | 172 | 3.2 | 8.0 | 0.00 | 0.00 | 0.00 | 91 | 1006.5 |
| 20260506034113 | 23 | 286 | 0.0 | 1.6 | 0.00 | 0.00 | 0.00 | 92 | 1006.7 |
| 20260506033610 | 23 | 353 | 1.6 | 3.2 | 0.00 | 0.00 | 0.00 | 93 | 1006.5 |
| 20260506033107 | 23 | 167 | 3.2 | 3.2 | 0.00 | 0.00 | 0.00 | 94 | 1006.4 |
| 20260506032605 | 23 | 336 | 0.0 | 0.0 | 0.00 | 0.00 | 0.00 | 93 | 1006.1 |
| 20260506032101 | 23 | 315 | 0.0 | 0.0 | 0.00 | 0.00 | 0.00 | 93 | 1006.2 |
| 20260506031559 | 23 | 269 | 0.0 | 0.0 | 0.00 | 0.00 | 0.00 | 92 | 1006.0 |
| 20260506031055 | 23 | 199 | 0.0 | 3.2 | 0.00 | 0.00 | 0.00 | 92 | 1006.0 |
| 20260506030554 | 23 | 297 | 0.0 | 0.0 | 0.00 | 0.00 | 0.00 | 92 | 1005.9 |
| 20260506030051 | 23 | 126 | 0.0 | 1.6 | 0.00 | 0.00 | 0.00 | 92 | 1005.9 |
| 20260506025548 | 23 | 256 | 0.0 | 1.6 | 0.00 | 0.00 | 0.00 | 93 | 1005.8 |
| 20260506025044 | 23 | 112 | 0.0 | 3.2 | 0.00 | 0.00 | 0.00 | 93 | 1005.6 |
| 20260506024541 | 23 | 309 | 0.0 | 1.6 | 0.00 | 0.00 | 0.00 | 94 | 1005.8 |
| 20260506024037 | 23 | 310 | 0.0 | 3.2 | 0.00 | 0.00 | 0.00 | 94 | 1005.8 |
| 20260506023534 | 23 | 333 | 0.0 | 1.6 | 0.00 | 0.00 | 0.00 | 94 | 1005.8 |
| 20260506023031 | 23 | 331 | 1.6 | 3.2 | 0.00 | 0.00 | 0.00 | 95 | 1005.8 |
| 20260506022529 | 23 | 0 | 0.0 | 0.0 | 0.00 | 0.00 | 0.00 | 94 | 1005.7 |
| 20260506022026 | 23 | 0 | 0.0 | 1.6 | 0.00 | 0.00 | 0.00 | 94 | 1005.7 |
| 20260506021523 | 23 | 129 | 0.0 | 0.0 | 0.00 | 0.00 | 0.00 | 94 | 1005.4 |
| 20260506021020 | 23 | 129 | 0.0 | 0.0 | 0.00 | 0.00 | 0.00 | 94 | 1005.2 |
| 20260506020518 | 23 | 154 | 0.0 | 0.0 | 0.00 | 0.00 | 0.00 | 94 | 1005.2 |
| 20260506020015 | 23 | 154 | 0.0 | 0.0 | 0.00 | 0.00 | 0.00 | 94 | 1005.3 |
| 20260506015512 | 23 | 217 | 0.0 | 0.0 | 0.00 | 0.00 | 0.00 | 93 | 1005.5 |
| 20260506015009 | 23 | 217 | 0.0 | 0.0 | 0.00 | 0.00 | 0.00 | 93 | 1005.6 |
| 20260506014507 | 23 | 217 | 0.0 | 0.0 | 0.00 | 0.00 | 0.00 | 92 | 1005.5 |
| 20260506014003 | 23 | 217 | 0.0 | 0.0 | 0.00 | 0.00 | 0.00 | 92 | 1005.5 |
| 20260506013501 | 23 | 217 | 0.0 | 0.0 | 0.00 | 0.00 | 0.00 | 92 | 1005.5 |
| 20260506012956 | 23 | 217 | 0.0 | 0.0 | 0.00 | 0.00 | 0.00 | 91 | 1005.4 |
| 20260506012453 | 23 | 217 | 0.0 | 0.0 | 0.00 | 0.00 | 0.00 | 91 | 1005.6 |
| 20260506011950 | 24 | 217 | 0.0 | 0.0 | 0.00 | 0.00 | 0.00 | 90 | 1005.4 |
| 20260506011447 | 24 | 217 | 0.0 | 0.0 | 0.00 | 0.00 | 0.00 | 89 | 1005.4 |
| 20260506010944 | 25 | 173 | 0.0 | 0.0 | 0.00 | 0.00 | 0.00 | 88 | 1005.3 |
| 20260506010443 | 25 | 173 | 0.0 | 0.0 | 0.00 | 0.00 | 0.00 | 87 | 1005.3 |
| 20260506005939 | 25 | 173 | 0.0 | 0.0 | 0.00 | 0.00 | 0.00 | 86 | 1005.0 |
| 20260506005437 | 25 | 129 | 0.0 | 0.0 | 0.00 | 0.00 | 0.00 | 85 | 1005.1 |
| 20260506004932 | 26 | 255 | 0.0 | 1.6 | 0.00 | 0.00 | 0.00 | 83 | 1005.1 |
| 20260506004430 | 26 | 255 | 0.0 | 1.6 | 0.00 | 0.00 | 0.00 | 83 | 1005.2 |
| 20260506003925 | 26 | 333 | 0.0 | 0.0 | 0.00 | 0.00 | 0.00 | 82 | 1005.2 |
| 20260506003422 | 26 | 318 | 3.2 | 3.2 | 0.00 | 0.00 | 0.00 | 80 | 1004.9 |
| 20260506002919 | 26 | 36 | 0.0 | 1.6 | 0.00 | 0.00 | 0.00 | 80 | 1004.8 |
| 20260506002415 | 27 | 313 | 1.6 | 1.6 | 0.00 | 0.00 | 0.00 | 79 | 1004.7 |
| 20260506001910 | 27 | 313 | 0.0 | 3.2 | 0.00 | 0.00 | 0.00 | 79 | 1004.7 |
| 20260506001408 | 27 | 304 | 0.0 | 3.2 | 0.00 | 0.00 | 0.00 | 77 | 1004.5 |
| 20260506000905 | 27 | 340 | 0.0 | 3.2 | 0.00 | 0.00 | 0.00 | 78 | 1004.3 |
| 20260506000403 | 27 | 195 | 1.6 | 3.2 | 0.00 | 0.00 | 0.00 | 76 | 1004.4 |
| 20260505235859 | 27 | 118 | 1.6 | 3.2 | 0.00 | 0.00 | 0.00 | 75 | 1004.7 |
| 20260505235357 | 27 | 62 | 0.0 | 4.8 | 0.00 | 0.00 | 0.00 | 75 | 1004.7 |
| 20260505234853 | 28 | 259 | 1.6 | 4.8 | 0.00 | 0.00 | 0.00 | 74 | 1004.4 |
| 20260505234351 | 28 | 326 | 0.0 | 3.2 | 0.00 | 0.00 | 0.00 | 76 | 1004.7 |
| 20260505233848 | 28 | 306 | 6.4 | 6.4 | 0.00 | 0.00 | 0.00 | 73 | 1004.5 |
| 20260505233346 | 28 | 240 | 0.0 | 6.4 | 0.00 | 0.00 | 0.00 | 74 | 1004.5 |
| 20260505232843 | 28 | 304 | 0.0 | 3.2 | 0.00 | 0.00 | 0.00 | 74 | 1004.3 |
| 20260505232341 | 28 | 256 | 3.2 | 3.2 | 0.00 | 0.00 | 0.00 | 75 | 1004.4 |
| 20260505231837 | 28 | 13 | 0.0 | 1.6 | 0.00 | 0.00 | 0.00 | 76 | 1004.7 |
| 20260505231335 | 28 | 261 | 3.2 | 4.8 | 0.00 | 0.00 | 0.00 | 73 | 1004.5 |
| 20260505230833 | 28 | 168 | 0.0 | 6.4 | 0.00 | 0.00 | 0.00 | 72 | 1004.4 |
| 20260505230330 | 28 | 296 | 1.6 | 6.4 | 0.00 | 0.00 | 0.00 | 72 | 1004.5 |
| 20260505225826 | 28 | 109 | 3.2 | 6.4 | 0.00 | 0.00 | 0.00 | 73 | 1004.5 |
| 20260505225324 | 28 | 347 | 0.0 | 3.2 | 0.00 | 0.00 | 0.00 | 72 | 1004.5 |
| 20260505224819 | 28 | 265 | 4.8 | 4.8 | 0.00 | 0.00 | 0.00 | 73 | 1004.4 |
| 20260505224317 | 28 | 324 | 1.6 | 3.2 | 0.00 | 0.00 | 0.00 | 74 | 1004.3 |
| 20260505223814 | 28 | 189 | 3.2 | 6.4 | 0.00 | 0.00 | 0.00 | 73 | 1004.3 |
| 20260505223311 | 28 | 315 | 3.2 | 6.4 | 0.00 | 0.00 | 0.00 | 73 | 1004.2 |
| 20260505222806 | 28 | 285 | 0.0 | 4.8 | 0.00 | 0.00 | 0.00 | 74 | 1004.1 |
| 20260505222305 | 28 | 309 | 3.2 | 4.8 | 0.00 | 0.00 | 0.00 | 71 | 1004.3 |
| 20260505221800 | 29 | 285 | 1.6 | 6.4 | 0.00 | 0.00 | 0.00 | 70 | 1004.2 |
| 20260505221257 | 30 | 225 | 3.2 | 8.0 | 0.00 | 0.00 | 0.00 | 71 | 1004.3 |
| 20260505220754 | 30 | 306 | 0.0 | 6.4 | 0.00 | 0.00 | 0.00 | 69 | 1004.2 |
| 20260505220251 | 29 | 264 | 4.8 | 19.3 | 0.00 | 0.00 | 0.00 | 69 | 1004.1 |
| 20260505215749 | 29 | 271 | 3.2 | 4.8 | 0.00 | 0.00 | 0.00 | 69 | 1004.1 |
| 20260505215246 | 30 | 204 | 1.6 | 6.4 | 0.00 | 0.00 | 0.00 | 70 | 1004.2 |
| 20260505214744 | 30 | 170 | 4.8 | 6.4 | 0.00 | 0.00 | 0.00 | 67 | 1004.2 |
| 20260505214241 | 30 | 101 | 0.0 | 11.3 | 0.00 | 0.00 | 0.00 | 68 | 1004.4 |
| 20260505213738 | 29 | 279 | 6.4 | 9.7 | 0.00 | 0.00 | 0.00 | 69 | 1004.7 |
| 20260505213236 | 30 | 351 | 4.8 | 11.3 | 0.00 | 0.00 | 0.00 | 67 | 1004.8 |
| 20260505212731 | 30 | 153 | 11.3 | 17.7 | 0.00 | 0.00 | 0.00 | 67 | 1004.8 |
| 20260505212229 | 29 | 186 | 0.0 | 9.7 | 0.00 | 0.00 | 0.00 | 71 | 1005.0 |
| 20260505211726 | 28 | 259 | 4.8 | 6.4 | 0.00 | 0.00 | 0.00 | 69 | 1004.9 |
| 20260505211223 | 28 | 264 | 4.8 | 12.9 | 0.00 | 0.00 | 0.00 | 70 | 1005.1 |
| 20260505210719 | 29 | 21 | 11.3 | 12.9 | 0.00 | 0.00 | 0.00 | 68 | 1005.1 |
| 20260505210216 | 30 | 279 | 6.4 | 11.3 | 0.00 | 0.00 | 0.00 | 68 | 1005.4 |
| 20260505205714 | 29 | 246 | 3.2 | 6.4 | 0.00 | 0.00 | 0.00 | 69 | 1005.3 |
| 20260505205212 | 28 | 20 | 4.8 | 4.8 | 0.00 | 0.00 | 0.00 | 71 | 1005.1 |
| 20260505204708 | 28 | 252 | 3.2 | 8.0 | 0.00 | 0.00 | 0.00 | 69 | 1005.3 |
| 20260505204206 | 28 | 282 | 3.2 | 17.7 | 0.00 | 0.00 | 0.00 | 71 | 1005.4 |
| 20260505203703 | 28 | 180 | 0.0 | 6.4 | 0.00 | 0.00 | 0.00 | 73 | 1005.3 |
| 20260505203200 | 27 | 244 | 4.8 | 17.7 | 0.00 | 0.00 | 0.00 | 72 | 1005.4 |
| 20260505202655 | 28 | 17 | 0.0 | 6.4 | 0.00 | 0.00 | 0.00 | 73 | 1005.3 |
| 20260505202152 | 28 | 297 | 0.0 | 11.3 | 0.00 | 0.00 | 0.00 | 72 | 1005.4 |
| 20260505201648 | 28 | 228 | 3.2 | 6.4 | 0.00 | 0.00 | 0.00 | 73 | 1005.4 |
| 20260505201146 | 28 | 89 | 3.2 | 6.4 | 0.00 | 0.00 | 0.00 | 71 | 1005.5 |
| 20260505200644 | 28 | 287 | 6.4 | 9.7 | 0.00 | 0.00 | 0.00 | 72 | 1005.5 |
| 20260505200141 | 28 | 188 | 1.6 | 16.1 | 0.00 | 0.00 | 0.00 | 73 | 1005.5 |
| 20260505195637 | 27 | 136 | 6.4 | 6.4 | 0.00 | 0.00 | 0.00 | 72 | 1005.6 |
| 20260505195134 | 28 | 279 | 3.2 | 9.7 | 0.00 | 0.00 | 0.00 | 71 | 1005.6 |
| 20260505194631 | 28 | 342 | 3.2 | 8.0 | 0.00 | 0.00 | 0.00 | 71 | 1005.3 |
| 20260505194127 | 28 | 74 | 4.8 | 6.4 | 0.00 | 0.00 | 0.00 | 71 | 1005.7 |
| 20260505193624 | 28 | 355 | 4.8 | 6.4 | 0.00 | 0.00 | 0.00 | 71 | 1005.7 |
| 20260505193121 | 27 | 136 | 9.7 | 12.9 | 0.00 | 0.00 | 0.00 | 71 | 1005.8 |
| 20260505192620 | 28 | 283 | 9.7 | 16.1 | 0.00 | 0.00 | 0.00 | 71 | 1005.7 |
| 20260505192117 | 28 | 235 | 0.0 | 8.0 | 0.00 | 0.00 | 0.00 | 72 | 1005.6 |
| 20260505191615 | 27 | 265 | 4.8 | 12.9 | 0.00 | 0.00 | 0.00 | 72 | 1005.9 |
| 20260505191113 | 27 | 178 | 3.2 | 12.9 | 0.00 | 0.00 | 0.00 | 72 | 1005.9 |
| 20260505190608 | 27 | 200 | 4.8 | 8.0 | 0.00 | 0.00 | 0.00 | 74 | 1005.9 |
| 20260505190103 | 27 | 13 | 3.2 | 9.7 | 0.00 | 0.00 | 0.00 | 74 | 1005.9 |
| 20260505185600 | 27 | 94 | 8.0 | 8.0 | 0.00 | 0.00 | 0.00 | 74 | 1005.8 |
| 20260505185057 | 27 | 289 | 6.4 | 11.3 | 0.00 | 0.00 | 0.00 | 74 | 1005.7 |
| 20260505184554 | 27 | 289 | 8.0 | 9.7 | 0.00 | 0.00 | 0.00 | 74 | 1005.9 |
| 20260505184050 | 27 | 235 | 4.8 | 12.9 | 0.00 | 0.00 | 0.00 | 74 | 1005.7 |
| 20260505183547 | 27 | 271 | 8.0 | 14.5 | 0.00 | 0.00 | 0.00 | 75 | 1005.9 |
| 20260505183045 | 26 | 279 | 4.8 | 9.7 | 0.00 | 0.00 | 0.00 | 76 | 1005.8 |
| 20260505182541 | 26 | 302 | 0.0 | 11.3 | 0.00 | 0.00 | 0.00 | 76 | 1005.7 |
| 20260505182038 | 26 | 318 | 3.2 | 11.3 | 0.00 | 0.00 | 0.00 | 76 | 1006.0 |
| 20260505181534 | 27 | 315 | 4.8 | 16.1 | 0.00 | 0.00 | 0.00 | 74 | 1006.0 |
| 20260505181032 | 27 | 238 | 3.2 | 6.4 | 0.00 | 0.00 | 0.00 | 76 | 1005.9 |
| 20260505180527 | 26 | 60 | 3.2 | 9.7 | 0.00 | 0.00 | 0.00 | 75 | 1006.2 |
| 20260505180026 | 26 | 308 | 12.9 | 14.5 | 0.00 | 0.00 | 0.00 | 75 | 1006.1 |
| 20260505175520 | 26 | 275 | 6.4 | 17.7 | 0.00 | 0.00 | 0.00 | 77 | 1006.1 |
| 20260505175017 | 26 | 283 | 11.3 | 12.9 | 0.00 | 0.00 | 0.00 | 76 | 1006.2 |
| 20260505174514 | 25 | 305 | 1.6 | 6.4 | 0.00 | 0.00 | 0.00 | 78 | 1006.2 |
| 20260505174010 | 26 | 246 | 6.4 | 17.7 | 0.00 | 0.00 | 0.00 | 79 | 1006.4 |
| 20260505173507 | 26 | 332 | 3.2 | 8.0 | 0.00 | 0.00 | 0.00 | 78 | 1006.4 |
| 20260505173004 | 25 | 287 | 1.6 | 8.0 | 0.00 | 0.00 | 0.00 | 79 | 1006.4 |
| 20260505172503 | 25 | 300 | 3.2 | 9.7 | 0.00 | 0.00 | 0.00 | 78 | 1006.4 |
| 20260505172002 | 26 | 51 | 1.6 | 8.0 | 0.00 | 0.00 | 0.00 | 78 | 1006.3 |
| 20260505171458 | 26 | 123 | 3.2 | 6.4 | 0.00 | 0.00 | 0.00 | 78 | 1006.3 |